Tri-Cities, TN

6:51 PM EDT on April 29, 2017 (GMT -0400)
Tri-Cities Regional Tennessee / Virginia

Weather History for KTRI - August, 2013

Change the Weather History Date:

Wednesday, August 21, 2013

  Actual Average Record
Temperature  
Mean Temperature 74 °F 74 °F  
Max Temperature 82 °F 85 °F 98 °F (1983)
Min Temperature 65 °F 62 °F 53 °F (2012)
Degree Days  
Heating Degree Days 0 0  
Month to date heating degree days 0 0  
Since 1 June heating degree days 0 11  
Since 1 July heating degree days 0 0  
Cooling Degree Days 9 9  
Month to date cooling degree days 172 191  
Year to date cooling degree days 762 769  
Since 1 June cooling degree days 690 696  
Growing Degree Days 24 (Base 50)    
Moisture  
Dew Point 66 °F    
Average Humidity 78    
Maximum Humidity 93    
Minimum Humidity 62    
Precipitation  
Precipitation T in 0.11 in 1.36 in (2016)
Month to date precipitation 4.41 2.48  
Year to date precipitation 44.58 28.46  
Snow  
Snow 0.00 in 0.00 in - ()
Month to date snowfall 0.0 0.0  
Since 1 June snowfall 0.0 0.0  
Since 1 July snowfall 0.0 0.0  
Snow Depth 0.00 in    
Sea Level Pressure  
Sea Level Pressure 30.16 in    
Wind  
Wind Speed 2 mph (WNW)    
Max Wind Speed 10 mph    
Max Gust Speed 13 mph    
Visibility 8 miles    
Events      
T = Trace of Precipitation, MM = Missing Value Source: NWS Daily Summary

Daily Weather History Graph

Daily Weather History Graph

Search for Another Location

Airport or City:

Trip Planner

Search our weather history database for the weather conditions in past years. The results will help you decide how hot, cold, wet, or windy it might be!

Date:

Astronomy

Aug. 21, 2013 Rise Set
Actual Time 6:52 AM EDT 8:12 PM EDT
Civil Twilight 6:25 AM EDT 8:39 PM EDT
Nautical Twilight 5:53 AM EDT 9:11 PM EDT
Astronomical Twilight 5:19 AM EDT 9:45 PM EDT
Moon 8:24 PM EDT (8/21) 7:28 AM EDT (8/21)
Length of Visible Light 14h 13m
Length of Day
13h 20m
Full, 100% of the Moon is Illuminated
Aug 21
Full
Aug 28
Last Quarter
Sep 5
New
Sep 12
First Quarter
Sep 19
Full

Hourly Weather History & Observations

Time (EDT) Temp. Heat Index Dew Point Humidity Pressure Visibility Wind Dir Wind Speed Gust Speed Precip Events Conditions
12:53 AM 68.0 °F - 66.0 °F 93% 30.15 in 10.0 mi Calm Calm - N/A   Scattered Clouds
1:53 AM 66.9 °F - 64.9 °F 93% 30.14 in 10.0 mi Calm Calm - N/A   Scattered Clouds
2:53 AM 66.9 °F - 64.9 °F 93% 30.12 in 10.0 mi Calm Calm - N/A   Scattered Clouds
3:53 AM 66.9 °F - 64.9 °F 93% 30.13 in 10.0 mi Calm Calm - N/A   Scattered Clouds
4:53 AM 66.0 °F - 64.0 °F 93% 30.14 in 4.0 mi Calm Calm - N/A   Scattered Clouds
5:53 AM 66.0 °F - 64.0 °F 93% 30.15 in 6.0 mi Calm Calm - N/A   Overcast
6:05 AM 66.0 °F - 64.0 °F 93% 30.23 in 2.5 mi NE 3.5 mph - N/A   Overcast
6:26 AM 66.9 °F - 64.9 °F 93% 30.23 in 9.0 mi Calm Calm - N/A   Overcast
6:53 AM 66.9 °F - 64.9 °F 93% 30.17 in 4.0 mi NNE 3.5 mph - N/A   Mostly Cloudy
7:53 AM 66.9 °F - 64.9 °F 93% 30.18 in 8.0 mi Calm Calm - N/A   Overcast
8:53 AM 70.0 °F - 66.9 °F 90% 30.19 in 10.0 mi Calm Calm - N/A   Overcast
9:53 AM 72.0 °F - 68.0 °F 87% 30.18 in 10.0 mi North 4.6 mph - N/A   Overcast
10:53 AM 75.0 °F - 66.9 °F 76% 30.20 in 10.0 mi Calm Calm - N/A   Overcast
11:53 AM 77.0 °F - 68.0 °F 74% 30.20 in 10.0 mi Calm Calm - N/A   Mostly Cloudy
12:53 PM 80.1 °F 82.3 °F 66.9 °F 64% 30.19 in 10.0 mi ESE 3.5 mph - N/A   Overcast
1:53 PM 81.0 °F 83.3 °F 66.9 °F 62% 30.16 in 10.0 mi Calm Calm - N/A   Overcast
2:53 PM 81.0 °F 83.0 °F 66.0 °F 60% 30.14 in 10.0 mi South 4.6 mph - N/A   Overcast
3:53 PM 81.0 °F 83.3 °F 66.9 °F 62% 30.13 in 10.0 mi SW 5.8 mph - N/A   Overcast
4:53 PM 80.1 °F 82.7 °F 68.0 °F 67% 30.12 in 10.0 mi WSW 5.8 mph - N/A   Overcast
5:53 PM 79.0 °F - 69.1 °F 72% 30.10 in 10.0 mi West 6.9 mph - 0.00 in   Overcast
6:53 PM 77.0 °F - 70.0 °F 79% 30.12 in 10.0 mi WNW 9.2 mph - N/A   Overcast
7:53 PM 75.9 °F - 68.0 °F 76% 30.12 in 10.0 mi WNW 4.6 mph - N/A   Mostly Cloudy
8:53 PM 73.0 °F - 68.0 °F 84% 30.12 in 10.0 mi NW 3.5 mph - N/A   Mostly Cloudy
9:53 PM 70.0 °F - 66.9 °F 90% 30.14 in 9.0 mi Calm Calm - N/A   Mostly Cloudy
10:53 PM 70.0 °F - 66.9 °F 90% 30.15 in 10.0 mi Calm Calm - N/A   Scattered Clouds
11:46 PM 68.0 °F - 66.0 °F 93% 30.21 in 1.8 mi Calm Calm - N/A   Scattered Clouds
11:48 PM 68.0 °F - 66.2 °F 94% 30.21 in 3.0 mi Calm Calm - N/A   Scattered Clouds
11:53 PM 68.0 °F - 66.0 °F 93% 30.14 in 3.0 mi Calm Calm - N/A   Scattered Clouds